Location: Habighorst
(52.7089°N, 10.2278°E)
Time: 23:50:45
(UTC+00:00)

USA 234 - Pass Details

Date: 13 January 2026
Orbit: 1102 x 1106 km, 123.0° (Epoch: 4 January)

Event Time Altitude Azimuth Distance (km) Brightness Sun altitude
Rises 06:34:54 0° 60° (ENE) 3,934 6.7 -7.4°
Reaches altitude 10° 06:37:25 10° 63° (ENE) 2,974 6.1 -7.0°
Maximum altitude 06:43:59 72° 148° (SSE) 1,162 3.6 -6.1°
Drops below altitude 10° 06:50:31 10° 232° (SW) 2,962 5.3 -5.3°
Sets 06:53:01 0° 235° (SW) 3,917 5.9 -4.9°
